Location: Filler
(36.7551°N, 30.4456°E)
Time: 05:55:37
(UTC+00:00)

FENGYUN 3A - Visible Passes

Search period start: 15 September 2024 00:00
Search period end: 25 September 2024 00:00
Orbit: 822 x 834 km, 98.6° (Epoch: 14 September)

Date Brightness Start Highest point End Pass type
(mag) Time Alt. Az. Time Alt. Az. Time Alt. Az.
15 Sep 5.5 00:30:46 10° N 00:32:48 24° N 00:32:48 24° N visible
16 Sep 5.7 00:12:16 10° NNE 00:14:01 21° NNE 00:14:01 21° NNE visible
16 Sep 5.9 01:55:26 10° NW 01:55:32 10° NW 01:55:32 10° NW visible
16 Sep 6.0 23:53:56 10° NNE 23:55:15 18° NNE 23:55:15 18° NNE visible
17 Sep 5.7 01:35:35 10° NNW 01:36:45 14° NW 01:36:45 14° NW visible
17 Sep 6.4 23:35:45 10° NNE 23:36:27 14° NE 23:36:27 14° NE visible
18 Sep 5.6 01:16:26 10° NNW 01:17:59 17° NNW 01:17:59 17° NNW visible
19 Sep 5.6 00:57:34 10° N 00:59:12 19° NNW 00:59:12 19° NNW visible
20 Sep 5.7 00:38:52 10° N 00:40:24 19° N 00:40:24 19° N visible
21 Sep 5.9 00:20:19 10° N 00:21:38 18° N 00:21:38 18° N visible
22 Sep 6.2 00:01:54 10° NNE 00:02:50 15° NNE 00:02:50 15° NNE visible
22 Sep 5.9 01:44:06 10° NNW 01:44:21 11° NNW 01:44:21 11° NNW visible
22 Sep 6.4 23:43:37 10° NNE 23:44:03 12° NNE 23:44:03 12° NNE visible
23 Sep 5.8 01:24:44 10° NNW 01:25:34 13° NNW 01:25:34 13° NNW visible
24 Sep 5.8 01:05:45 10° N 01:06:46 15° NNW 01:06:46 15° NNW visible
